Regional Weather Roundup
Issued by NWS

Home | Current Version | Previous Version | Graphics & Text | Print | Product List | Glossary On
Versions: 1 2 3 4 5 6 7 8 9 10 11 12 13 14 15 16 17 18 19 20 21 22 23 24 25 26 27 28 29 30 31 32 33 34 35 36 37 38 39 40 41 42 43 44 45 46 47 48 49 50
000
ASUS44 KMEG 231110
RWRTN
TENNESSEE HOURLY STATE WEATHER ROUNDUP
NATIONAL WEATHER SERVICE MEMPHIS TN
600 AM CDT MON OCT 23 2017

TNZ002-004-019-021-049-052-054-088>092-231200-
WEST TENNESSEE

CITY           SKY/WX    TMP DP  RH WIND       PRES   REMARKS
MEMPHIS INTL   CLOUDY    53  52  96 NW7       29.97R
NWS MEMPHIS      N/A     53 N/A N/A MISG        N/A
JACKSON        CLOUDY    54  54 100 W9        29.92S FOG
DYERSBURG        N/A     53  52  96 NW9       29.93S FOG
SOMERVILLE     CLOUDY    54  54 100 W6        29.94R FOG
COVINGTON      CLOUDY    54  52  94 NW9       29.95R
UNION CITY     CLOUDY    54  52  94 NW7G13    29.89F FOG
BOLIVAR        CLOUDY    54  52  94 W5        29.93S
HUNTINGDON     CLOUDY    55  54  94 W6G13     29.87F FOG
LEXINGTON      CLOUDY    55  54  94 W5G13     29.89S FOG
SELMER         CLOUDY    54  54 100 VRB7G13   29.90S
SAVANNAH       CLOUDY    55  55 100 NW6       29.90S
$$

TNZ008-025-027-028-033-062-065-066-231200-
NORTH MIDDLE TENNESSEE

CITY           SKY/WX    TMP DP  RH WIND       PRES   REMARKS
NASHVILLE      LGT RAIN  62  60  93 W3        29.84F
PORTLAND       CLOUDY    61  61 100 N3        29.82F FOG
CLARKSVILLE    CLOUDY    58  55  90 W13       29.83F
SMYRNA         RAIN      61  61 100 CALM      29.85R FOG
COOKEVILLE     CLOUDY    68  64  88 W10G17    29.84R FOG
GALLATIN       MOCLDY    63  61  94 CALM      29.85S FOG
CROSSVILLE     LGT RAIN  65  61  87 SE10G23   29.87F
$$

TNZ061-075-076-078-094-096-097-231200-
SOUTH MIDDLE TENNESSEE

CITY           SKY/WX    TMP DP  RH WIND       PRES   REMARKS
FAYETTEVILLE   MOCLDY    61  59  94 NW3       29.87S
TULLAHOMA      CLOUDY    59  57  94 NW7       29.88R
WINCHESTER     CLOUDY    61  59  94 NW5         N/A
COLUMBIA       MOCLDY    61  59  94 S5        29.84S
SHELBYVILLE    CLOUDY    61  59  94 CALM      29.86F FOG
$$

TNZ017-018-042-046-047-231200-
NORTHEAST TENNESSEE

CITY           SKY/WX    TMP DP  RH WIND       PRES   REMARKS
TRI CITIES     LGT RAIN  63  62  97 NE3       30.01F FOG
ELIZABETHTON   CLOUDY    64  59  82 NE7       30.03F
$$

TNZ012-013-036-069-073-074-231200-
CENTRAL EAST TENNESSEE

CITY           SKY/WX    TMP DP  RH WIND       PRES   REMARKS
KNOXVILLE      CLOUDY    63  63 100 NE6       29.88F
OAK RIDGE      LGT RAIN  61  61 100 CALM      29.91F
DOWNTOWN KNOXV CLOUDY    63  61  94 CALM      29.90F
GATLINBURG     PTCLDY    72  59  64 VRB6      29.89F
MORRISTOWN     MOCLDY    66  61  82 VRB5      29.93F
JACKSBORO      MOCLDY    59  59 100 CALM      29.94F FOG
$$

TNZ083-085-099-231200-
SOUTHEAST TENNESSEE

CITY           SKY/WX    TMP DP  RH WIND       PRES   REMARKS
CHATTANOOGA    LGT RAIN  68  65  90 SE9       29.84F FOG
DAYTON         PTSUNNY   66  66 100 VRB3      29.85F FOG
$$

SKY/WX REPORTED AS FAIR MEANS FEW OR NO CLOUDS BELOW
12 THOUSAND FEET.




USA.gov is the U.S. government's official web portal to all federal, state and local government web resources and services.